SCP
0 0 0 0 0 0 1 1 0 0 0 0 0 0 0 0 0 0 0 0 0 0 0 0 0 0 0 1 1 1 0 0 0 0 0 0 0 0 0 0 0 0 0
0 0 0 0 0 0 1 1 0 0 0 0 0 0 0 0 0 0 0 0 0 0 0 0 0 0 0 1 1 1 0 0 0 0 0 0 0 0 0 0 0 0 0
0 0 0 0 0 0 0 0 0 0 0 0 0 0 0 0 0 0 0 0 0 0 0 0 0 0 0 0 1 1 0 0 0 0 0 0 0 0 0 0 0 0 0
0 0 0 0 0 0 0 0 0 0 0 0 0 0 0 0 0 0 0 0 0 0 0 0 0 0 0 0 0 0 0 0 0 0 0 0 0 0 0 0 0 0 0
0 0 0 0 0 0 0 0 0 0 0 0 0 0 0 0 0 0 0 0 0 0 0 0 0 0 0 0 0 0 0 0 0 0 0 0 0 0 0 0 0 0 0
0 0 0 0 0 0 0 0 0 0 0 0 0 0 0 0 0 0 0 0 0 0 0 0 0 0 0 0 0 0 0 0 0 0 0 0 0 0 0 0 0 0 0
0 0 0 0 0 0 0 0 0 0 0 0 0 0 0 0 0 0 0 0 0 0 0 0 0 0 0 0 0 0 0 0 0 0 0 0 0 0 0 0 0 0 0
0 0 0 0 0 0 0 0 0 0 0 0 0 0 0 0 0 0 0 0 0 0 0 0 0 0 0 0 0 0 0 0 0 0 0 0 0 0 0 0 0 0 0
0 0 0 0 0 0 0 0 0 0 0 0 0 0 0 0 0 0 0 0 0 0 0 0 0 0 0 0 0 0 0 0 0 0 0 0 0 0 0 0 0 0 0
0 0 0 0 0 0 0 0 0 0 0 0 0 0 0 0 0 0 0 0 0 0 0 0 0 0 0 0 0 0 0 0 0 0 0 0 0 0 0 0 0 0 0
0 0 0 0 0 0 0 0 0 0 0 0 0 0 0 0 0 0 0 0 0 0 0 0 0 0 0 0 0 0 0 0 0 0 0 0 0 0 0 0 0 0 0
0 0 0 0 0 0 0 0 0 0 0 0 0 0 0 0 0 0 0 0 0 0 0 0 0 0 0 0 0 0 0 0 0 0 0 0 0 0 0 0 0 0 0
0 0 0 0 0 0 0 0 0 0 0 0 0 0 0 0 0 0 0 0 0 0 0 0 0 0 0 0 0 0 0 0 0 0 0 0 0 0 0 0 0 0 0
0 0 0 0 0 0 0 0 0 0 0 0 0 0 0 0 0 0 0 0 0 0 0 0 0 0 0 0 0 0 0 0 0 0 0 0 0 0 0 0 0 0 0
0 0 0 0 0 0 0 0 0 0 0 0 0 0 0 0 0 0 0 0 0 0 0 0 0 0 0 0 0 0 0 0 0 0 0 0 0 0 0 0 0 0 0
0 0 0 0 0 0 0 0 0 0 0 0 0 0 0 0 0 0 0 0 0 0 0 0 0 0 0 0 0 0 0 0 0 0 0 0 0 0 0 0 0 0 0
0 0 0 0 0 0 0 0 0 0 0 0 0 0 0 0 0 0 0 0 0 0 0 0 0 0 0 0 0 0 0 0 0 0 0 0 0 0 0 0 0 0 0
0 0 0 0 0 0 0 0 0 0 0 0 0 0 0 0 0 0 0 0 0 0 0 0 0 0 0 0 0 0 0 0 0 0 0 0 0 0 0 0 0 0 0
0 0 0 0 0 0 0 0 0 0 0 0 0 0 0 0 0 0 0 0 0 0 0 0 0 0 0 0 0 0 0 0 0 0 0 0 0 0 0 0 0 0 0
0 0 0 0 0 0 0 0 0 0 0 0 0 0 0 0 0 0 0 0 0 0 0 0 0 0 0 0 0 0 0 0 0 0 0 0 0 0 0 0 0 0 0
0 0 0 0 0 0 0 0 0 0 0 0 0 0 0 0 0 0 0 0 0 0 0 0 0 0 0 0 0 0 0 0 0 0 0 0 0 0 0 0 0 0 0
0 0 0 0 0 0 0 0 0 0 0 0 0 0 0 0 0 0 0 0 0 0 0 0 0 0 0 0 0 0 0 0 0 0 0 0 0 0 0 0 0 0 0
0 0 0 -0 0 0 0 0 0 0 0 0 0 0 0 0 0 0 0 0 0 0 0 0 0 0 0 0 0 0 0 0 0 0 0 0 0 0 0 0 0 0 0
0 0 0 -0 0 0 0 0 0 0 0 0 0 0 0 0 0 0 0 0 0 0 0 0 0 0 0 0 0 0 0 0 0 0 0 0 0 0 0 0 0 0 0
0 0 0 0 0 0 0 0 0 0 0 0 0 0 0 0 0 0 0 0 0 0 0 0 0 0 0 0 0 0 0 0 0 0 0 0 0 0 0 0 0 0 0
0 0 0 0 -0 0 0 0 0 0 0 0 0 0 0 0 0 0 0 0 0 0 0 0 0 0 0 0 0 0 0 0 0 0 0 0 0 0 0 0 0 0 0
Wind_Speed
5 5 5 5 4 4 3 4 4 4 4 5 5 5 5 5 5 5 5 5 5 5 5 5 5 4 4 4 3 4 4 5 8 6 4 3 3 4 4 4 4 4 5
4 4 4 5 4 4 4 4 4 4 5 5 5 5 5 5 5 5 6 6 6 6 6 6 6 4 5 4 4 5 5 5 6 8 5 4 4 4 4 4 4 4 4
4 4 4 4 4 4 5 4 4 4 5 5 5 5 5 5 5 5 5 5 5 6 6 6 6 6 6 5 5 5 5 5 5 6 6 4 4 3 4 4 4 3 4
4 4 4 4 4 4 4 4 4 4 4 5 5 5 5 5 5 5 5 6 6 6 6 6 6 6 6 7 6 6 5 6 5 5 6 5 4 3 3 4 5 4 4
4 4 4 4 4 4 5 5 5 4 4 4 5 5 5 5 5 6 6 6 6 6 6 6 6 7 8 7 6 6 6 6 5 5 5 5 4 4 4 4 6 5 5
4 4 4 4 4 5 5 5 5 5 5 5 5 5 5 5 8 10 8 6 6 6 7 6 6 6 8 9 10 9 8 7 7 6 5 6 7 6 5 5 6 6 6
4 5 5 5 5 5 6 6 6 6 5 5 5 5 5 6 10 10 10 6 5 5 6 6 6 6 7 7 9 10 9 8 8 7 7 7 7 6 6 6 6 6 7
5 5 5 5 6 6 5 6 6 5 5 5 5 5 5 7 10 10 10 6 5 5 5 6 7 7 7 8 7 7 7 7 7 6 6 7 7 6 6 6 6 6 6
5 6 6 6 6 6 6 6 6 5 5 5 5 4 5 6 9 10 9 5 4 5 5 5 6 6 10 11 8 7 7 7 8 9 9 9 11 11 8 4 4 4 5
6 6 6 6 5 6 6 6 5 5 5 5 5 5 5 5 8 10 9 4 5 5 5 5 6 8 11 11 7 6 7 7 7 7 7 8 7 7 7 5 4 4 4
6 6 6 6 6 6 6 5 5 5 5 5 5 5 5 5 7 9 10 5 4 5 5 5 5 10 12 12 11 7 8 8 6 6 5 5 5 4 4 4 4 4 4
5 5 6 6 5 5 5 5 5 5 5 5 5 5 4 4 6 8 10 9 8 6 5 5 6 11 12 12 9 9 10 8 4 4 5 5 5 5 5 5 5 5 5
5 6 6 6 5 5 5 5 5 4 4 4 4 4 4 4 5 9 9 10 10 6 5 8 10 11 10 8 9 10 8 4 4 4 5 5 5 5 5 5 5 5 5
5 5 5 5 5 5 4 4 3 4 4 4 4 4 5 4 4 4 4 5 6 6 5 6 8 9 8 7 7 7 5 4 4 4 5 5 5 5 4 4 5 5 5
5 5 5 4 4 4 4 4 4 4 4 4 4 4 4 5 6 9 7 5 4 4 4 3 4 4 5 5 5 5 5 5 5 4 4 5 5 5 5 4 4 4 4
4 4 4 4 4 4 4 5 6 6 7 8 7 6 5 7 10 10 10 9 9 7 5 3 4 4 5 5 5 5 5 5 5 5 5 4 5 5 5 5 4 4 4
4 4 4 3 3 3 4 4 5 6 7 8 9 9 8 9 10 10 9 9 8 7 4 3 3 4 4 4 4 4 5 5 5 5 5 5 5 5 5 5 4 4 4
3 4 3 3 3 3 3 3 3 4 5 5 7 10 11 11 11 11 9 7 5 5 2 3 3 4 4 4 4 4 5 5 4 4 4 4 4 4 5 5 4 4 4
3 3 3 3 3 3 3 3 3 3 3 4 5 6 9 10 10 9 8 3 3 3 3 3 3 4 4 4 4 4 4 4 5 4 4 4 4 4 4 5 4 5 4
2 4 3 2 2 2 2 2 2 3 3 3 4 5 5 4 4 5 4 3 2 3 3 4 4 4 4 4 4 4 4 4 4 4 4 4 4 4 5 5 5 4 4
2 2 2 1 1 2 2 2 2 2 3 3 4 5 7 4 3 4 4 3 3 3 4 4 4 4 4 3 3 4 5 5 4 4 4 4 4 4 4 4 5 4 4
1 1 1 1 1 1 2 2 2 2 3 3 4 5 7 4 3 4 4 4 4 4 4 4 4 4 4 4 4 4 4 5 5 4 4 4 4 4 4 4 4 4 4
1 1 1 1 1 1 2 2 2 2 3 3 4 4 4 3 3 4 4 4 4 4 4 3 4 5 4 4 4 4 5 5 5 5 5 5 4 4 4 4 5 5 4
1 1 1 1 1 1 2 2 2 3 3 3 3 4 4 4 4 5 5 5 5 5 4 4 5 6 8 6 5 4 5 6 5 5 5 5 5 4 4 4 4 5 4
1 1 1 2 2 2 2 3 3 3 3 4 4 4 4 4 5 5 5 5 5 5 6 6 5 6 7 9 8 7 8 10 8 5 4 4 4 4 4 4 4 4 4
2 2 2 2 2 2 3 3 3 4 4 4 4 4 4 5 5 5 5 5 5 6 6 6 6 7 9 8 9 10 10 10 9 7 4 3 3 4 4 4 4 4 4
Wind_Direction
8 6 8 5 6 3 0 358 352 348 350 352 347 345 347 349 347 343 331 326 318 314 313 308 303 307 306 304 297 288 274 266 270 283 285 290 281 285 296 291 290 289 288
358 2 1 0 359 358 357 353 351 347 348 347 342 342 344 343 343 339 331 331 323 316 315 312 306 306 303 303 300 290 283 278 270 279 287 287 286 282 287 289 293 295 294
356 357 356 354 353 347 342 340 345 345 347 346 344 340 336 333 334 331 326 323 323 320 318 315 311 311 305 304 300 295 289 288 284 283 285 290 291 291 295 295 290 287 296
351 350 344 340 339 333 331 333 338 340 342 340 337 332 327 327 329 328 329 325 324 324 325 322 321 321 315 314 309 308 304 295 288 285 288 292 293 295 294 297 299 295 295
343 341 330 327 332 336 335 332 333 335 333 329 329 331 332 330 332 334 329 328 327 328 332 332 331 331 327 321 314 314 311 303 299 293 292 296 297 306 302 299 294 302 298
337 328 326 330 337 339 333 332 334 333 331 332 333 330 329 330 331 333 331 331 332 332 330 331 331 330 330 331 325 320 313 305 302 296 292 290 294 300 300 297 297 302 296
333 331 334 335 333 333 333 335 333 330 332 332 329 328 325 325 331 333 337 335 332 331 327 326 325 327 330 330 328 327 325 319 308 292 290 291 293 295 293 290 287 287 287
333 332 333 331 325 326 331 332 329 326 324 320 322 325 325 326 332 336 339 339 331 330 328 324 321 324 327 326 323 326 325 326 322 314 296 294 297 299 289 289 290 292 292
332 329 328 324 321 324 328 327 324 323 321 318 322 325 324 324 331 334 340 331 330 330 326 326 323 319 322 326 327 324 325 327 336 334 324 317 317 318 312 303 296 292 291
324 321 321 320 318 317 315 318 319 317 316 320 321 324 320 318 326 333 340 334 330 326 324 323 321 323 323 325 323 320 320 323 330 334 336 334 329 327 326 311 291 283 289
321 321 322 323 319 313 314 318 319 317 320 320 318 320 320 320 325 334 337 334 323 319 319 321 320 324 325 326 325 321 317 322 328 329 325 327 332 335 334 327 318 299 287
324 321 320 320 318 319 319 319 322 320 318 318 317 318 321 326 331 329 331 330 327 318 315 316 318 323 326 329 331 332 334 337 336 330 324 324 328 329 327 323 319 313 301
324 319 317 319 319 319 317 317 321 321 316 316 317 316 322 327 327 330 329 329 330 326 318 320 323 326 330 336 339 340 343 342 334 330 323 319 318 316 319 322 323 319 311
316 314 316 319 321 322 319 314 310 310 308 311 312 313 315 317 319 322 322 327 332 330 329 332 335 340 345 349 348 349 347 339 331 325 319 318 321 324 328 328 323 325 325
309 310 314 315 315 317 315 308 304 291 288 296 295 300 308 313 318 324 327 325 326 323 339 351 352 350 351 349 348 349 349 347 343 334 330 329 329 331 329 331 327 326 317
307 310 311 312 314 314 315 315 317 314 318 318 317 311 312 316 323 327 330 334 341 352 11 359 348 346 341 337 336 338 342 340 336 333 330 327 326 325 324 327 325 318 312
289 295 301 304 307 307 307 309 316 328 334 339 343 344 342 338 339 339 345 356 3 13 19 347 340 336 330 329 328 328 326 328 329 329 327 325 323 321 320 321 322 318 311
290 289 289 292 297 299 300 302 303 308 320 328 340 346 350 349 349 351 356 6 4 7 356 335 328 323 320 321 321 321 320 322 325 325 322 319 317 314 313 313 313 312 310
290 288 290 294 295 296 300 304 307 309 311 317 326 335 346 344 349 357 6 17 345 335 333 324 317 315 316 316 315 314 312 313 316 316 313 311 310 309 308 308 305 304 305
279 287 295 294 301 307 311 312 313 314 315 317 320 322 330 338 345 346 355 348 335 320 317 314 312 311 310 308 308 310 312 311 311 308 306 306 308 305 302 304 305 302 298
273 283 289 294 292 295 302 305 305 306 306 308 308 314 322 333 332 328 327 324 317 310 309 308 306 306 303 300 300 302 303 301 301 300 300 301 303 302 301 300 301 300 298
251 261 270 275 287 295 297 297 297 297 298 300 306 317 330 335 318 309 306 304 300 293 289 291 293 291 288 289 291 293 292 291 293 295 296 296 296 294 296 300 303 305 307
239 248 269 277 276 287 297 296 292 291 292 294 299 306 313 307 300 296 297 299 300 299 296 290 289 293 293 289 284 277 276 278 280 281 285 289 290 291 293 294 297 301 305
222 230 250 271 277 278 282 287 288 288 289 291 293 292 293 294 293 294 294 295 296 295 293 290 284 285 290 294 290 282 274 275 274 269 267 270 277 282 285 288 290 291 296
210 220 236 251 263 270 275 279 281 282 283 284 285 287 290 290 289 290 291 292 293 293 294 292 286 285 288 291 290 287 284 284 281 270 262 258 265 273 278 282 287 293 295
217 225 238 246 254 259 263 269 274 276 277 280 280 280 283 285 286 288 290 291 293 294 294 292 286 287 289 290 288 290 290 287 280 271 253 249 259 269 274 277 283 287 292